Weather History for Dalhart, TX

Change the Weather History Date:

Monday, June 17, 2013

  Actual Average Record
Temperature  
Mean Temperature 76 °F 73 °F  
Max Temperature 88 °F 88 °F 102 °F (1949)
Min Temperature 63 °F 58 °F 48 °F (1973)
Degree Days  
Heating Degree Days 0 0  
Month to date heating degree days 0 9  
Since 1 June heating degree days 0 9  
Since 1 July heating degree days 4400 4726  
Cooling Degree Days 11 8  
Month to date cooling degree days 187 110  
Year to date cooling degree days 341 182  
Since 1 June cooling degree days 187 110  
Growing Degree Days 26 (Base 50)    
Moisture  
Dew Point 55 °F    
Average Humidity 53    
Maximum Humidity 78    
Minimum Humidity 28    
Precipitation  
Precipitation 0.01 in 0.07 in 2.81 in (1993)
Month to date precipitation 0.25 1.32  
Year to date precipitation 1.55 6.73  
Snow  
Snow 0.00 in 0.00 in T in (1993)
Month to date snowfall 0.0 0.0  
Since 1 June snowfall 0.0 0.0  
Since 1 July snowfall 21.6 18.9  
Snow Depth 0.00 in    
Sea Level Pressure  
Sea Level Pressure 29.96 in    
Wind  
Wind Speed 10 mph (NE)    
Max Wind Speed 29 mph    
Max Gust Speed 36 mph    
Visibility 10 miles    
Events Rain , Thunderstorm    
T = Trace of Precipitation, MM = Missing Value Source: NWS Daily Summary

Daily Weather History Graph

Daily Weather History Graph

Search for Another Location

Airport:

Trip Planner

Search our weather history database for the weather conditions in past years. The results will help you decide how hot, cold, wet, or windy it might be!

Date:

Astronomy

Jun. 17, 2013 Rise Set
Actual Time 6:33 AM CDT 9:09 PM CDT
Civil Twilight 6:02 AM CDT 9:39 PM CDT
Nautical Twilight 5:25 AM CDT 10:17 PM CDT
Astronomical Twilight 4:43 AM CDT 10:59 PM CDT
Moon 2:59 PM CDT (6/17) 1:59 AM CDT (6/17)
Length of Visible Light 15h 36m
Length of Day
14h 36m
First Quarter, 60% of the Moon is Illuminated
Jun 17
First Quarter
Jun 23
Full
Jun 29
Last Quarter
Jul 8
New
Jul 15
First Quarter

Hourly Weather History & Observations

Time (CDT) Temp. Heat Index Dew Point Humidity Pressure Visibility Wind Dir Wind Speed Gust Speed Precip Events Conditions
12:53 AM 71.1 °F - 61.0 °F 70% 29.86 in 10.0 mi ENE 20.7 mph 26.5 mph N/A   Mostly Cloudy
1:07 AM 69.8 °F - 62.6 °F 78% 30.03 in 10.0 mi NE 20.7 mph - N/A   Scattered Clouds
1:53 AM 68.0 °F - 60.1 °F 76% 29.89 in 10.0 mi NE 16.1 mph - N/A   Clear
2:53 AM 66.9 °F - 57.0 °F 70% 29.90 in 10.0 mi North 8.1 mph - N/A   Mostly Cloudy
3:53 AM 64.9 °F - 57.9 °F 78% 29.88 in 10.0 mi North 5.8 mph - N/A   Partly Cloudy
4:53 AM 64.9 °F - 55.9 °F 73% 29.91 in 10.0 mi North 8.1 mph - N/A   Clear
5:53 AM 64.0 °F - 55.9 °F 75% 29.92 in 10.0 mi North 5.8 mph - N/A   Clear
6:53 AM 63.0 °F - 55.0 °F 75% 29.94 in 10.0 mi North 11.5 mph - N/A   Clear
7:53 AM 64.0 °F - 55.9 °F 75% 29.96 in 10.0 mi NE 13.8 mph - N/A   Clear
8:53 AM 66.0 °F - 57.0 °F 73% 29.96 in 10.0 mi NNE 5.8 mph - N/A   Clear
9:53 AM 71.1 °F - 57.9 °F 63% 29.96 in 10.0 mi NNE 9.2 mph - N/A   Clear
10:53 AM 75.0 °F - 57.0 °F 53% 29.98 in 10.0 mi NE 5.8 mph - N/A   Clear
11:53 AM 79.0 °F - 57.0 °F 47% 29.98 in 10.0 mi Variable 4.6 mph - N/A   Clear
12:53 PM 82.0 °F 81.7 °F 57.0 °F 42% 29.96 in 10.0 mi ENE 9.2 mph - N/A   Clear
1:53 PM 84.0 °F 82.5 °F 53.1 °F 34% 29.94 in 10.0 mi ENE 6.9 mph 16.1 mph N/A   Clear
2:53 PM 86.0 °F - 51.1 °F 30% 29.91 in 10.0 mi ESE 12.7 mph - N/A   Clear
3:53 PM 88.0 °F - 50.0 °F 27% 29.88 in 10.0 mi East 17.3 mph 23.0 mph N/A   Clear
4:53 PM 86.0 °F - 50.0 °F 29% 29.88 in 10.0 mi SE 12.7 mph - N/A   Clear
5:53 PM 84.0 °F - 52.0 °F 33% 29.90 in 10.0 mi East 11.5 mph - N/A   Clear
6:53 PM 82.0 °F 81.3 °F 54.0 °F 38% 29.92 in 10.0 mi NE 8.1 mph - N/A   Partly Cloudy
7:20 PM 78.8 °F - 51.8 °F 39% 30.12 in 10.0 mi WNW 16.1 mph 27.6 mph N/A Thunderstorm Scattered Clouds
7:38 PM 73.4 °F - 50.0 °F 44% 30.14 in 10.0 mi NW 21.9 mph - N/A Thunderstorm Overcast
7:53 PM 72.0 °F - 53.1 °F 51% 29.97 in 6.0 mi North 9.2 mph 20.7 mph 0.00 in Rain , Thunderstorm Light Rain
8:13 PM 71.6 °F - 55.4 °F 57% 30.09 in 10.0 mi NNE 17.3 mph 24.2 mph 0.00 in   Scattered Clouds
8:53 PM 73.0 °F - 52.0 °F 48% 29.91 in 10.0 mi East 8.1 mph - 0.00 in   Clear
9:53 PM 70.0 °F - 55.0 °F 59% 29.94 in 10.0 mi East 3.5 mph - N/A   Clear
10:53 PM 71.1 °F - 57.9 °F 63% 29.99 in 10.0 mi ENE 9.2 mph - N/A   Scattered Clouds
11:49 PM 71.6 °F - 57.2 °F 60% 30.12 in 10.0 mi ENE 13.8 mph - N/A Thunderstorm Overcast
11:53 PM 72.0 °F - 59.0 °F 64% 29.95 in 10.0 mi ENE 15.0 mph - 0.00 in Rain , Thunderstorm Light Rain